Regional Weather Roundup
Issued by NWS

Home | Current Version | Previous Version | Text Only | Print | Product List | Glossary On
Versions: 1 2 3 4 5 6 7 8 9 10 11 12 13 14 15 16 17 18 19 20 21 22 23 24 25 26 27 28 29 30 31 32 33 34 35 36 37 38 39 40 41 42 43 44 45 46 47 48 49 50
000
ASUS43 KLMK 292310
RWRKY
KENTUCKY REGIONAL WEATHER ROUNDUP
NATIONAL WEATHER SERVICE LOUISVILLE KY
700 PM EDT SUN MAY 29 2016

NOTE "FAIR" INDICATES FEW OR NO CLOUDS BELOW 12,000 FEET
WITH NO SIGNIFICANT WEATHER AND/OR OBSTRUCTIONS TO VISIBILITY.

KYZ001>023-026-027-061>063-070>075-300000-
WESTERN AND SOUTH CENTRAL KENTUCKY

CITY           SKY/WX    TMP DP  RH WIND       PRES   REMARKS
PADUCAH        SUNNY     86  61  42 NW6       30.03F
HENDERSON      MOSUNNY   84  64  51 SW7       30.02F
OWENSBORO      MOSUNNY   81  65  58 NW6       30.04S
HOPKINSVILLE   NOT AVBL
BOWLING GREEN  CLOUDY    87  65  47 W10       30.03S
GLASGOW        SUNNY     83  65  54 W3        30.04S
$$

KYZ024-025-028>034-038-045-046-053-300000-
NORTH CENTRAL KENTUCKY

CITY           SKY/WX    TMP DP  RH WIND       PRES   REMARKS
LOUISVILLE/SDF PTSUNNY   84  63  49 W10       30.01R
LOUISVILLE/LOU MOSUNNY   85  64  49 SW8       30.01S
FORT KNOX      CLOUDY    80  68  67 W6        30.02R
$$

KYZ035>037-039>044-047>052-055>060-089>105-300000-
NORTHEAST KENTUCKY

CITY           SKY/WX    TMP DP  RH WIND       PRES   REMARKS
LEXINGTON      SUNNY     84  65  52 SW7       30.04S
COVINGTON      MOSUNNY   83  65  54 SW10      30.01S
FRANKFORT      SUNNY     84  64  50 SW8       30.02R
$$

KYZ054-064>069-076>088-106>120-300000-
SOUTHEAST KENTUCKY

CITY           SKY/WX    TMP DP  RH WIND       PRES   REMARKS
JACKSON        SUNNY     79  65  62 SE3       30.07F
LONDON         PTSUNNY   84  62  47 W3        30.06S
SOMERSET       SUNNY     79  63  57 CALM      30.06S
MIDDLESBORO    CLOUDY    76  63  63 CALM      30.08F
MONTICELLO     PTCLDY    83  67  58 VRB6      30.07S
$$





USA.gov is the U.S. government's official web portal to all federal, state and local government web resources and services.